Location: Strawberry
(45.6646°N, 111.9596°W)
Time: 20:22:06
(UTC+00:00)

Courier 1B - Pass Details

Date: 03 October 2022
Orbit: 962 x 1209 km, 28.3° (Epoch: 29 November)

Event Time Altitude Azimuth Distance (km) Brightness Sun altitude
Rises 00:47:22 0° 246° (WSW) 3,861 12.5 2.4°
Reaches altitude 10° 00:51:22 10° 226° (SW) 2,851 10.9 1.7°
Maximum altitude 00:55:14 16° 191° (S) 2,401 9.8 1.0°
Drops below altitude 10° 00:59:01 10° 156° (SSE) 2,758 9.7 0.4°
Sets 01:02:47 0° 135° (SE) 3,671 10.1 -0.3°
